Location: F M Corners
(41.2198°N, 80.4709°W)
Time: 22:47:03
(UTC+00:00)

Cosmos 1812 Rocket - Pass Details

Date: 29 October 2020
Orbit: 605 x 633 km, 82.5° (Epoch: 29 November)

Event Time Altitude Azimuth Distance (km) Brightness Sun altitude
Rises 23:47:40 0° 178° (S) 2,890 7.0 -16.9°
Reaches altitude 10° 23:49:54 10° 175° (S) 1,984 6.1 -17.4°
Maximum altitude 23:54:15 63° 95° (E) 690 3.5 -18.2°
Drops below altitude 10° 23:58:35 10° 14° (NNE) 1,982 6.0 -19.0°
Sets 00:00:49 0° 12° (NNE) 2,887 6.9 -19.4°
